Wind_Speed
26 28 32 34 29 31 23 18 19 15 13 19 14 11 8 8 12 15 11 8 11 13 9 9 13 11 9 6 8 6 5 6 4 9 2 5 4 8 6 7 1 3 2
22 28 30 30 28 26 29 22 24 18 15 17 16 11 10 8 12 11 11 11 11 12 12 10 10 10 10 7 5 5 4 8 5 1 3 1 3 5 2 3 4 3 5
28 31 29 32 31 35 28 24 21 17 19 19 15 13 11 9 9 11 12 10 11 10 10 9 7 7 8 7 7 6 6 5 4 6 3 5 7 4 3 3 5 3 2
26 26 29 33 33 36 23 22 22 19 19 17 14 12 11 9 9 11 11 11 8 9 8 8 9 8 12 12 13 10 6 7 6 4 6 7 11 9 4 6 7 9 4
20 31 35 33 35 37 29 25 21 22 20 15 15 13 11 12 11 13 11 11 11 9 8 9 8 6 7 9 10 8 8 7 7 9 14 9 10 8 5 4 5 5 0
20 18 23 26 25 28 24 25 23 20 16 17 15 15 17 14 12 12 12 10 11 13 13 10 11 13 13 14 12 12 12 14 14 14 11 6 1 2 4 5 8 10 11
15 18 14 21 22 21 20 20 18 15 16 15 15 14 12 13 14 14 13 13 10 10 10 11 11 12 14 11 9 11 14 17 17 15 16 16 14 9 10 12 11 13 14
9 10 15 18 17 15 12 12 14 13 15 15 14 13 11 12 12 15 16 19 16 12 13 12 14 13 6 8 8 9 9 7 7 8 10 11 13 14 15 16 17 15 16
5 8 11 11 11 12 12 13 13 13 12 14 13 14 18 17 14 14 17 20 17 16 16 15 14 13 15 15 16 18 16 16 13 13 14 11 11 10 13 18 19 20 22
6 7 12 13 12 15 14 12 14 13 12 11 10 13 15 14 11 10 14 16 13 11 12 15 17 16 19 18 16 13 12 10 9 11 11 12 14 15 14 17 17 21 23
9 8 8 8 12 12 13 15 15 13 11 13 11 10 11 14 14 14 13 17 17 17 17 19 16 12 12 9 8 11 11 8 11 14 14 16 15 15 19 21 21 20 23
6 10 11 10 12 12 14 14 14 14 14 14 15 15 14 15 16 15 16 16 17 23 20 15 11 10 17 18 14 11 12 13 16 17 19 20 22 23 25 26 21 20 22
10 9 10 11 12 14 15 15 15 15 14 13 13 14 15 19 21 16 13 13 17 21 25 22 15 9 10 16 17 15 16 19 20 22 24 24 21 22 25 23 23 24 24
14 14 13 13 15 14 8 12 12 15 13 16 18 20 20 17 19 21 18 14 14 17 20 21 21 19 19 18 19 21 22 23 25 25 25 18 19 25 28 24 21 21 20
15 15 14 14 15 15 15 16 14 14 19 21 20 14 18 20 21 22 27 21 17 14 15 18 19 20 21 22 24 24 25 25 25 20 22 22 23 19 24 24 26 25 25
18 17 16 17 18 18 18 13 18 21 19 22 21 18 22 11 8 6 8 23 19 16 17 19 20 18 19 22 24 26 24 31 31 22 26 24 26 26 23 19 17 17 18
22 19 17 16 20 21 18 25 20 15 16 20 20 21 29 30 27 21 18 16 19 20 21 22 21 22 24 24 25 28 30 24 24 23 23 25 22 19 19 20 24 26 26
25 23 21 18 19 15 18 23 21 21 22 21 23 26 22 17 22 29 35 29 26 28 29 29 30 31 33 32 29 30 35 34 23 24 25 25 29 30 29 26 24 24 25
25 25 23 24 20 17 17 17 24 23 23 21 12 19 24 25 24 22 26 33 35 35 33 33 34 35 35 35 36 39 34 28 29 32 31 28 29 28 29 30 30 27 24
24 24 22 24 25 22 23 24 19 21 22 20 21 27 18 16 24 29 27 27 33 36 36 36 35 34 34 35 37 39 32 31 36 36 33 32 30 28 30 29 27 24 23
23 25 31 31 31 29 27 26 26 26 29 24 28 22 26 30 27 25 34 31 30 28 36 39 35 33 33 33 35 37 42 32 40 38 34 36 36 34 32 32 27 26 24
26 25 26 27 33 33 30 28 23 24 24 22 29 33 31 33 36 34 31 37 38 26 28 30 31 30 30 32 36 35 35 40 38 40 39 37 35 35 32 30 29 28 27
23 27 30 31 33 34 32 32 33 37 37 36 37 42 41 33 37 37 39 37 39 33 32 30 32 35 30 30 35 39 36 43 45 44 43 43 40 37 35 33 31 30 32
21 22 21 22 22 23 30 33 34 35 32 31 28 29 40 38 33 36 43 39 43 37 39 38 34 40 47 42 33 32 44 41 46 47 46 43 39 36 36 36 34 34 32
22 22 23 23 22 24 23 31 33 30 33 35 37 20 36 41 39 40 35 34 30 35 36 41 40 39 35 44 48 41 45 45 49 43 44 43 42 40 40 39 39 38 31
28 28 26 26 28 23 25 28 25 27 26 33 31 31 30 30 32 31 27 26 29 37 28 31 32 29 32 37 41 49 34 40 29 35 38 42 36 38 41 41 37 34 28
Wind_Direction
236 237 214 211 221 219 237 224 216 211 210 225 265 257 251 228 234 242 242 208 187 181 186 189 193 186 191 206 230 219 174 169 181 160 228 244 323 202 239 281 180 313 318
221 218 219 222 205 225 224 226 212 214 249 265 262 228 221 233 230 214 212 195 194 203 209 214 207 212 205 209 257 186 198 185 143 147 182 289 296 357 5 19 35 191 254
230 217 213 212 210 214 232 209 219 247 260 256 243 217 238 240 208 200 198 213 220 213 218 223 210 216 199 178 197 177 206 160 189 181 232 252 233 287 332 337 319 340 346
221 224 223 213 215 214 231 223 231 245 240 236 228 228 253 219 208 212 220 208 201 202 209 209 221 229 195 197 208 208 211 205 220 262 218 259 235 262 275 295 289 306 321
239 219 209 211 208 214 231 240 233 244 238 221 224 232 207 206 219 212 223 214 211 213 208 201 212 229 201 213 192 215 220 221 218 257 264 256 237 220 225 269 294 291 175
236 226 215 223 232 234 238 238 241 230 228 228 214 205 196 211 205 211 210 213 216 202 202 202 204 227 232 239 232 227 231 235 236 242 239 269 205 168 236 238 265 289 281
232 223 239 249 247 238 226 221 227 225 199 194 194 202 200 197 201 213 210 184 215 202 208 210 217 238 254 243 251 250 247 247 249 248 246 248 260 253 246 257 269 270 276
215 213 213 216 214 217 206 198 190 191 185 188 193 198 194 211 209 216 204 188 192 211 219 225 225 230 240 245 257 261 269 270 255 265 272 266 263 259 254 266 265 275 290
180 195 191 188 178 188 181 180 177 185 193 198 197 204 193 206 214 210 204 209 214 215 215 225 229 238 237 240 246 248 242 240 245 272 279 291 290 279 268 266 268 271 282
224 212 200 196 190 177 180 188 192 189 198 197 195 204 203 208 226 232 226 222 218 219 229 228 234 238 227 235 246 252 253 248 235 238 274 275 271 276 268 262 270 270 276
201 189 179 192 187 188 196 187 185 189 196 183 207 218 215 213 228 237 238 228 214 223 237 245 247 253 238 236 244 254 263 269 234 243 253 264 271 280 283 279 273 272 280
192 188 190 195 195 188 184 189 200 194 195 204 209 218 231 240 238 241 243 243 237 219 227 222 252 247 246 250 251 266 268 269 260 254 253 254 261 271 279 289 258 274 284
182 173 183 187 178 211 213 205 194 197 201 219 227 231 232 244 244 251 257 259 247 236 227 226 236 222 225 219 244 261 265 264 261 261 264 270 269 273 279 277 277 283 281
207 203 206 206 185 216 207 201 200 216 225 216 230 236 244 240 246 247 240 239 231 229 232 229 234 244 252 249 256 260 257 259 259 264 273 270 264 271 269 272 272 274 269
201 202 201 200 203 203 213 217 220 221 229 233 231 240 247 249 227 229 232 238 236 239 240 240 243 243 245 249 255 259 263 261 260 263 263 256 269 259 261 271 276 271 269
201 201 204 205 216 208 220 213 220 234 236 238 242 236 237 248 256 254 229 218 226 234 237 246 249 254 259 265 260 264 269 266 264 253 249 252 257 274 276 284 273 266 265
202 207 213 221 228 218 209 229 227 230 232 242 245 238 240 249 256 254 246 235 227 229 237 245 247 243 253 257 264 269 268 265 257 233 247 256 263 256 255 261 265 271 272
209 210 222 236 228 240 238 222 234 239 242 251 262 254 244 238 242 251 254 253 252 249 250 253 254 258 260 264 263 263 269 278 236 257 253 258 263 265 262 258 257 260 264
228 220 226 234 239 244 241 259 241 235 243 249 281 273 266 249 243 244 249 249 248 248 249 252 253 257 260 261 258 255 262 271 242 245 249 257 263 259 253 251 257 258 254
224 230 232 239 246 250 251 258 259 242 241 265 273 258 269 263 246 248 246 244 242 244 249 252 253 252 260 265 266 258 263 254 237 244 252 253 247 248 248 250 248 254 250
230 239 235 235 235 238 241 244 246 242 265 260 276 263 249 259 265 258 257 249 251 242 255 257 256 259 258 257 265 272 275 262 254 258 266 261 258 255 255 252 246 242 247
229 232 238 238 234 235 242 245 248 249 254 244 266 273 264 257 264 256 251 253 248 262 254 256 260 261 258 252 256 257 268 261 253 257 252 253 251 251 248 239 239 243 245
237 239 245 245 242 237 235 242 246 245 258 251 265 264 262 270 263 255 246 246 255 255 260 251 249 254 254 262 268 273 274 258 257 260 253 248 244 241 239 241 241 243 244
252 258 261 259 259 245 241 241 244 244 251 242 245 259 265 258 265 259 254 259 250 254 257 251 259 258 259 273 265 291 262 250 255 257 254 240 238 239 239 237 237 238 233
243 244 251 261 270 274 293 273 255 254 245 239 247 267 262 256 259 264 248 237 243 257 266 258 260 276 272 272 274 283 252 250 251 257 258 243 242 238 233 230 229 229 226
244 243 245 254 257 274 255 274 274 277 259 253 246 251 268 259 257 257 248 251 265 259 274 284 283 289 274 276 300 257 300 294 254 273 261 246 243 242 237 233 223 216 213
Height
1497 1499 1502 1505 1510 1513 1518 1520 1522 1523 1523 1529 1529 1528 1529 1530 1535 1538 1539 1540 1543 1546 1547 1550 1551 1553 1555 1557 1557 1559 1560 1562 1562 1565 1567 1567 1568 1567 1568 1568 1568 1568 1569
1492 1492 1497 1504 1509 1513 1516 1518 1521 1519 1525 1528 1530 1527 1530 1532 1535 1534 1538 1539 1541 1543 1546 1549 1550 1551 1553 1555 1557 1559 1560 1560 1562 1564 1564 1566 1567 1567 1568 1568 1567 1567 1567
1484 1489 1495 1502 1508 1507 1508 1513 1517 1519 1521 1524 1529 1528 1528 1531 1531 1534 1537 1539 1540 1541 1544 1547 1547 1548 1550 1553 1557 1558 1559 1559 1562 1562 1564 1565 1565 1564 1566 1566 1564 1565 1565
1485 1487 1487 1495 1500 1500 1504 1509 1513 1514 1517 1520 1524 1525 1528 1528 1530 1534 1535 1537 1539 1540 1541 1545 1546 1547 1549 1552 1556 1557 1559 1559 1560 1561 1562 1562 1562 1563 1564 1563 1564 1563 1563
1479 1454 1484 1490 1491 1496 1501 1503 1506 1508 1511 1514 1520 1523 1525 1527 1530 1532 1534 1536 1537 1538 1540 1543 1546 1547 1549 1551 1552 1555 1556 1557 1558 1559 1560 1561 1562 1561 1562 1563 1561 1560 1560
1479 1479 1483 1489 1491 1496 1498 1500 1504 1506 1509 1512 1514 1519 1521 1524 1527 1530 1533 1535 1536 1536 1539 1542 1544 1547 1548 1550 1550 1553 1553 1554 1555 1555 1556 1556 1557 1558 1558 1558 1557 1558 1559
1479 1482 1477 1489 1493 1495 1497 1499 1500 1504 1506 1511 1512 1516 1518 1521 1524 1527 1530 1531 1535 1537 1539 1542 1544 1545 1545 1546 1548 1548 1549 1550 1552 1553 1553 1554 1554 1554 1556 1554 1555 1557 1556
1480 1477 1480 1486 1490 1495 1495 1498 1498 1503 1505 1508 1511 1514 1516 1519 1522 1525 1528 1531 1533 1536 1540 1540 1541 1542 1543 1543 1544 1545 1546 1547 1548 1548 1549 1550 1550 1550 1551 1552 1553 1552 1551
1481 1481 1483 1486 1487 1492 1494 1498 1500 1501 1505 1507 1508 1511 1516 1518 1521 1523 1525 1529 1530 1532 1535 1537 1537 1538 1540 1541 1542 1543 1542 1543 1543 1544 1545 1546 1547 1546 1547 1549 1547 1547 1546
1482 1484 1485 1486 1487 1491 1494 1497 1501 1502 1505 1506 1506 1511 1515 1517 1520 1521 1523 1525 1527 1530 1532 1533 1533 1534 1535 1536 1537 1537 1537 1537 1538 1541 1541 1542 1542 1543 1544 1543 1542 1541 1541
1482 1483 1484 1486 1489 1491 1494 1497 1499 1501 1504 1505 1507 1510 1513 1515 1516 1518 1520 1521 1523 1526 1528 1528 1529 1529 1529 1530 1532 1533 1534 1535 1536 1536 1537 1538 1538 1539 1538 1538 1537 1537 1536
1480 1482 1484 1486 1489 1491 1493 1495 1498 1500 1502 1505 1507 1509 1510 1512 1513 1514 1515 1516 1518 1520 1520 1522 1523 1523 1524 1526 1528 1529 1530 1532 1531 1531 1532 1532 1533 1534 1533 1531 1530 1530 1530
1479 1480 1482 1485 1488 1490 1492 1494 1496 1499 1501 1503 1505 1506 1506 1507 1508 1508 1509 1510 1512 1514 1515 1516 1517 1518 1520 1521 1523 1523 1525 1525 1525 1526 1526 1526 1527 1527 1528 1527 1526 1525 1524
1478 1480 1481 1483 1485 1487 1489 1492 1494 1496 1498 1499 1501 1502 1502 1501 1501 1501 1503 1505 1506 1507 1509 1510 1512 1514 1515 1516 1516 1517 1517 1518 1518 1519 1519 1519 1520 1520 1520 1519 1519 1519 1518
1476 1478 1480 1482 1484 1486 1488 1490 1491 1492 1494 1495 1495 1497 1498 1498 1496 1496 1497 1498 1500 1501 1503 1505 1507 1508 1509 1510 1511 1511 1512 1511 1512 1513 1512 1512 1512 1512 1512 1512 1512 1512 1511
1474 1476 1478 1478 1479 1481 1483 1485 1487 1489 1489 1490 1492 1493 1494 1494 1494 1494 1494 1495 1496 1497 1498 1499 1500 1502 1504 1505 1504 1504 1504 1503 1504 1503 1505 1505 1505 1505 1504 1504 1504 1504 1504
1470 1472 1474 1475 1476 1475 1477 1479 1481 1482 1484 1486 1486 1486 1488 1489 1490 1491 1491 1492 1492 1493 1492 1493 1494 1497 1499 1499 1498 1497 1495 1494 1493 1494 1495 1497 1498 1498 1497 1497 1497 1497 1497
1464 1467 1469 1471 1472 1473 1474 1475 1476 1477 1478 1479 1480 1481 1481 1482 1483 1484 1485 1485 1485 1485 1485 1486 1488 1489 1490 1490 1490 1488 1487 1483 1485 1492 1490 1487 1488 1489 1489 1488 1488 1488 1489
1460 1462 1464 1466 1467 1469 1470 1471 1471 1472 1473 1474 1474 1474 1474 1476 1476 1476 1476 1475 1475 1475 1476 1476 1477 1479 1480 1481 1479 1477 1480 1480 1473 1481 1483 1478 1480 1481 1481 1480 1479 1480 1481
1454 1457 1460 1462 1462 1463 1464 1465 1466 1465 1466 1466 1466 1466 1467 1467 1467 1468 1467 1466 1465 1465 1466 1469 1470 1470 1471 1470 1469 1468 1467 1474 1473 1470 1467 1465 1470 1472 1472 1472 1470 1470 1471
1446 1449 1451 1453 1453 1454 1456 1457 1458 1458 1458 1459 1456 1457 1458 1458 1457 1457 1459 1458 1457 1456 1457 1459 1460 1460 1462 1463 1463 1461 1457 1461 1461 1458 1454 1455 1457 1459 1461 1461 1460 1461 1462
1438 1438 1439 1440 1443 1446 1448 1448 1450 1449 1451 1448 1447 1446 1449 1446 1446 1447 1449 1449 1448 1447 1449 1449 1451 1451 1452 1453 1450 1448 1448 1446 1448 1448 1447 1447 1447 1447 1449 1450 1451 1451 1452
1434 1433 1433 1433 1432 1435 1438 1439 1438 1439 1439 1439 1439 1438 1436 1436 1435 1437 1438 1441 1440 1442 1441 1441 1444 1443 1443 1444 1444 1437 1439 1441 1441 1442 1439 1438 1436 1436 1438 1440 1441 1442 1443
1429 1426 1426 1427 1428 1429 1430 1430 1429 1428 1428 1428 1428 1427 1424 1427 1427 1429 1431 1432 1433 1433 1432 1432 1430 1430 1434 1429 1426 1424 1421 1424 1427 1428 1428 1428 1426 1424 1426 1428 1430 1431 1430
1423 1422 1421 1422 1424 1423 1422 1422 1421 1418 1417 1418 1418 1418 1416 1417 1419 1420 1419 1422 1423 1423 1423 1423 1421 1415 1420 1416 1419 1416 1406 1408 1408 1412 1415 1414 1413 1411 1407 1410 1415 1417 1418
1415 1415 1415 1416 1416 1415 1415 1414 1414 1412 1409 1408 1407 1408 1408 1409 1411 1413 1412 1413 1414 1415 1415 1414 1413 1407 1407 1403 1399 1382 1403 1383 1377 1396 1400 1400 1400 1402 1400 1401 1400 1403 1407